Time,TemperatureF,DewpointF,PressureIn,WindDirection,WindDirectionDegrees,WindSpeedMPH,WindSpeedGustMPH,Humidity,HourlyPrecipIn,Conditions,Clouds,dailyrainin,SoftwareType,DateUTC
2013-01-26 00:00:00,19.9,16.9,30.16,WSW,242,4.0,8.0,88,0.00,,---,0.00,VWS V13.01,2013-01-26 05:00:00,
2013-01-26 00:02:00,19.9,16.9,30.16,WSW,250,2.0,7.0,88,0.00,,---,0.00,VWS V13.01,2013-01-26 05:02:00,
2013-01-26 00:03:00,19.9,16.9,30.16,West,268,3.0,7.0,88,0.00,,---,0.00,VWS V13.01,2013-01-26 05:03:00,
2013-01-26 00:08:00,19.9,16.9,30.16,WSW,251,2.0,7.0,88,0.00,,---,0.00,VWS V13.01,2013-01-26 05:08:00,
2013-01-26 00:13:00,19.9,16.9,30.16,WSW,242,1.0,7.0,88,0.00,,---,0.00,VWS V13.01,2013-01-26 05:13:00,
2013-01-26 00:18:00,19.8,16.8,30.17,WSW,243,2.0,7.0,88,0.00,,---,0.00,VWS V13.01,2013-01-26 05:18:00,
2013-01-26 00:23:00,19.8,16.8,30.16,WSW,257,2.0,7.0,88,0.00,,---,0.00,VWS V13.01,2013-01-26 05:23:00,
2013-01-26 00:28:00,19.8,16.8,30.17,WSW,249,3.0,7.0,88,0.00,,---,0.00,VWS V13.01,2013-01-26 05:28:00,
2013-01-26 00:33:00,19.8,16.8,30.17,WSW,249,2.0,6.0,88,0.00,,---,0.00,VWS V13.01,2013-01-26 05:33:00,
2013-01-26 00:38:00,19.8,16.8,30.16,WSW,246,3.0,6.0,88,0.00,,---,0.00,VWS V13.01,2013-01-26 05:38:00,
2013-01-26 00:43:00,19.8,16.8,30.16,WSW,254,3.0,6.0,88,0.00,,---,0.00,VWS V13.01,2013-01-26 05:43:00,
2013-01-26 00:48:00,19.8,16.8,30.16,WSW,252,2.0,6.0,88,0.00,,---,0.00,VWS V13.01,2013-01-26 05:48:00,
2013-01-26 00:53:00,19.8,16.8,30.16,WSW,240,3.0,6.0,88,0.00,,---,0.00,VWS V13.01,2013-01-26 05:53:00,
2013-01-26 00:58:00,19.8,16.8,30.16,West,273,1.0,6.0,88,0.00,,---,0.00,VWS V13.01,2013-01-26 05:58:00,
2013-01-26 01:03:00,19.8,17.1,30.16,WSW,250,5.0,6.0,89,0.00,,---,0.00,VWS V13.01,2013-01-26 06:03:00,
2013-01-26 01:08:00,19.8,17.1,30.16,SW,228,4.0,6.0,89,0.00,,---,0.00,VWS V13.01,2013-01-26 06:08:00,
2013-01-26 01:13:00,19.8,17.1,30.16,SW,232,4.0,6.0,89,0.00,,---,0.00,VWS V13.01,2013-01-26 06:13:00,
2013-01-26 01:18:00,19.8,17.1,30.16,WSW,237,3.0,6.0,89,0.00,,---,0.00,VWS V13.01,2013-01-26 06:18:00,
2013-01-26 01:23:00,19.8,17.1,30.16,SW,232,3.0,6.0,89,0.00,,---,0.00,VWS V13.01,2013-01-26 06:23:00,
2013-01-26 01:28:00,19.8,17.1,30.16,SW,236,1.0,6.0,89,0.00,,---,0.00,VWS V13.01,2013-01-26 06:28:00,
2013-01-26 01:33:00,19.8,17.1,30.16,SW,229,4.0,7.0,89,0.00,,---,0.00,VWS V13.01,2013-01-26 06:33:00,
2013-01-26 01:38:00,19.8,16.8,30.16,West,259,8.0,8.0,88,0.00,,---,0.00,VWS V13.01,2013-01-26 06:38:00,
2013-01-26 01:43:00,19.9,16.9,30.16,WSW,250,4.0,8.0,88,0.00,,---,0.00,VWS V13.01,2013-01-26 06:43:00,
2013-01-26 01:48:00,19.9,16.9,30.16,WSW,241,3.0,8.0,88,0.00,,---,0.00,VWS V13.01,2013-01-26 06:48:00,
2013-01-26 01:53:00,19.9,16.9,30.16,WSW,254,1.0,8.0,88,0.00,,---,0.00,VWS V13.01,2013-01-26 06:53:00,
2013-01-26 01:58:00,19.9,16.9,30.16,SW,229,6.0,8.0,88,0.00,,---,0.00,VWS V13.01,2013-01-26 06:58:00,
2013-01-26 02:03:00,19.9,16.9,30.16,SW,232,4.0,8.0,88,0.00,,---,0.00,VWS V13.01,2013-01-26 07:03:00,
2013-01-26 02:08:00,19.9,16.9,30.16,SW,230,3.0,8.0,88,0.00,,---,0.00,VWS V13.01,2013-01-26 07:08:00,
2013-01-26 02:13:00,19.9,16.9,30.16,SW,227,5.0,8.0,88,0.00,,---,0.00,VWS V13.01,2013-01-26 07:13:00,
2013-01-26 02:18:00,19.9,16.9,30.17,WSW,240,4.0,8.0,88,0.00,,---,0.00,VWS V13.01,2013-01-26 07:18:00,
2013-01-26 02:23:00,19.9,16.9,30.17,WSW,248,4.0,8.0,88,0.00,,---,0.00,VWS V13.01,2013-01-26 07:23:00,
2013-01-26 02:28:00,19.9,16.9,30.17,SSW,206,4.0,8.0,88,0.00,,---,0.00,VWS V13.01,2013-01-26 07:28:00,
2013-01-26 02:33:00,19.9,16.9,30.16,SW,219,3.0,8.0,88,0.00,,---,0.00,VWS V13.01,2013-01-26 07:33:00,
2013-01-26 02:38:00,19.9,16.9,30.16,SW,232,8.0,8.0,88,0.00,,---,0.00,VWS V13.01,2013-01-26 07:38:00,
2013-01-26 02:43:00,19.9,16.9,30.16,SW,225,5.0,8.0,88,0.00,,---,0.00,VWS V13.01,2013-01-26 07:43:00,
2013-01-26 02:48:00,19.9,16.9,30.17,SW,229,6.0,8.0,88,0.00,,---,0.00,VWS V13.01,2013-01-26 07:48:00,
2013-01-26 02:53:00,19.9,16.9,30.17,SW,236,6.0,8.0,88,0.00,,---,0.00,VWS V13.01,2013-01-26 07:53:00,
2013-01-26 02:58:00,19.9,16.9,30.17,SW,228,3.0,8.0,88,0.00,,---,0.00,VWS V13.01,2013-01-26 07:58:00,
2013-01-26 03:03:00,19.9,16.9,30.17,WSW,237,8.0,8.0,88,0.00,,---,0.00,VWS V13.01,2013-01-26 08:03:00,
2013-01-26 03:08:00,19.9,16.9,30.18,SW,225,5.0,8.0,88,0.00,,---,0.00,VWS V13.01,2013-01-26 08:08:00,
2013-01-26 03:13:00,19.9,16.9,30.17,SW,224,5.0,8.0,88,0.00,,---,0.00,VWS V13.01,2013-01-26 08:13:00,
2013-01-26 03:18:00,19.9,16.9,30.17,SW,223,6.0,8.0,88,0.00,,---,0.00,VWS V13.01,2013-01-26 08:18:00,
2013-01-26 03:23:00,19.9,16.9,30.17,SW,228,4.0,8.0,88,0.00,,---,0.00,VWS V13.01,2013-01-26 08:23:00,
2013-01-26 03:28:00,19.9,16.9,30.17,SSW,203,6.0,8.0,88,0.00,,---,0.00,VWS V13.01,2013-01-26 08:28:00,
2013-01-26 03:33:00,19.9,16.9,30.17,SW,223,6.0,8.0,88,0.00,,---,0.00,VWS V13.01,2013-01-26 08:33:00,
2013-01-26 03:38:00,19.9,16.9,30.17,SSW,205,7.0,9.0,88,0.00,,---,0.00,VWS V13.01,2013-01-26 08:38:00,
2013-01-26 03:43:00,20.0,17.0,30.17,SW,225,1.0,9.0,88,0.00,,---,0.00,VWS V13.01,2013-01-26 08:43:00,
2013-01-26 03:48:00,20.0,17.0,30.18,WSW,257,3.0,10.0,88,0.00,,---,0.00,VWS V13.01,2013-01-26 08:48:00,
2013-01-26 03:53:00,20.0,17.0,30.18,SW,227,6.0,10.0,88,0.00,,---,0.00,VWS V13.01,2013-01-26 08:53:00,
2013-01-26 03:58:00,20.0,17.0,30.18,SW,233,4.0,10.0,88,0.00,,---,0.00,VWS V13.01,2013-01-26 08:58:00,
2013-01-26 04:03:00,20.0,17.0,30.18,SW,218,4.0,7.0,88,0.00,,---,0.00,VWS V13.01,2013-01-26 09:03:00,
2013-01-26 04:08:00,20.0,17.0,30.18,SW,235,3.0,7.0,88,0.00,,---,0.00,VWS V13.01,2013-01-26 09:08:00,
2013-01-26 04:13:00,20.0,17.0,30.18,West,264,6.0,9.0,88,0.00,,---,0.00,VWS V13.01,2013-01-26 09:13:00,
2013-01-26 04:18:00,20.0,17.0,30.18,WSW,245,2.0,9.0,88,0.00,,---,0.00,VWS V13.01,2013-01-26 09:18:00,
2013-01-26 04:23:00,20.0,17.0,30.18,SW,232,5.0,9.0,88,0.00,,---,0.00,VWS V13.01,2013-01-26 09:23:00,
2013-01-26 04:28:00,20.0,17.0,30.18,WSW,257,5.0,9.0,88,0.00,,---,0.00,VWS V13.01,2013-01-26 09:28:00,
2013-01-26 04:33:00,20.0,17.0,30.18,WSW,242,4.0,8.0,88,0.00,,---,0.00,VWS V13.01,2013-01-26 09:33:00,
2013-01-26 04:38:00,20.1,17.4,30.19,SW,227,6.0,8.0,89,0.00,,---,0.00,VWS V13.01,2013-01-26 09:38:00,
2013-01-26 04:43:00,20.1,17.4,30.19,WSW,239,8.0,8.0,89,0.00,,---,0.00,VWS V13.01,2013-01-26 09:43:00,
2013-01-26 04:48:00,20.1,17.4,30.19,SW,219,3.0,9.0,89,0.00,,---,0.00,VWS V13.01,2013-01-26 09:48:00,
2013-01-26 04:53:00,20.1,17.1,30.19,WSW,238,5.0,9.0,88,0.00,,---,0.00,VWS V13.01,2013-01-26 09:53:00,
2013-01-26 04:58:00,20.1,17.4,30.19,SW,224,5.0,9.0,89,0.00,,---,0.00,VWS V13.01,2013-01-26 09:58:00,
2013-01-26 05:03:00,20.1,17.4,30.19,WSW,244,4.0,7.0,89,0.00,,---,0.00,VWS V13.01,2013-01-26 10:03:00,
2013-01-26 05:08:00,20.2,17.5,30.19,SW,229,2.0,8.0,89,0.00,,---,0.00,VWS V13.01,2013-01-26 10:08:00,
2013-01-26 05:13:00,20.1,17.4,30.19,SW,225,4.0,8.0,89,0.00,,---,0.00,VWS V13.01,2013-01-26 10:13:00,
2013-01-26 05:18:00,20.2,17.5,30.19,SW,234,5.0,8.0,89,0.00,,---,0.00,VWS V13.01,2013-01-26 10:18:00,
2013-01-26 05:23:00,20.2,17.5,30.19,WSW,246,4.0,8.0,89,0.00,,---,0.00,VWS V13.01,2013-01-26 10:23:00,
2013-01-26 05:28:00,20.2,17.5,30.19,SW,225,6.0,8.0,89,0.00,,---,0.00,VWS V13.01,2013-01-26 10:28:00,
2013-01-26 05:33:00,20.3,17.6,30.19,WSW,239,3.0,6.0,89,0.00,,---,0.00,VWS V13.01,2013-01-26 10:33:00,
2013-01-26 05:38:00,20.3,17.6,30.19,SW,219,6.0,7.0,89,0.00,,---,0.00,VWS V13.01,2013-01-26 10:38:00,
2013-01-26 05:43:00,20.3,17.6,30.20,SW,234,2.0,7.0,89,0.00,,---,0.00,VWS V13.01,2013-01-26 10:43:00,
2013-01-26 05:48:00,20.4,17.7,30.20,SW,223,5.0,8.0,89,0.00,,---,0.00,VWS V13.01,2013-01-26 10:48:00,
2013-01-26 05:53:00,20.4,17.7,30.19,WSW,240,3.0,8.0,89,0.00,,---,0.00,VWS V13.01,2013-01-26 10:53:00,
2013-01-26 05:58:00,20.5,17.8,30.20,SW,225,3.0,8.0,89,0.00,,---,0.00,VWS V13.01,2013-01-26 10:58:00,
2013-01-26 06:03:00,20.5,17.8,30.20,SSW,212,4.0,9.0,89,0.00,,---,0.00,VWS V13.01,2013-01-26 11:03:00,
2013-01-26 06:08:00,20.6,17.9,30.20,SW,231,2.0,9.0,89,0.00,,---,0.00,VWS V13.01,2013-01-26 11:08:00,
2013-01-26 06:13:00,20.6,17.9,30.20,SW,235,6.0,9.0,89,0.00,,---,0.00,VWS V13.01,2013-01-26 11:13:00,
2013-01-26 06:18:00,20.7,18.0,30.20,WSW,248,6.0,9.0,89,0.00,,---,0.00,VWS V13.01,2013-01-26 11:18:00,
2013-01-26 06:23:00,20.7,18.0,30.20,SW,229,3.0,9.0,89,0.00,,---,0.00,VWS V13.01,2013-01-26 11:23:00,
2013-01-26 06:28:00,20.7,18.0,30.20,WSW,250,2.0,9.0,89,0.00,,---,0.00,VWS V13.01,2013-01-26 11:28:00,
2013-01-26 06:33:00,20.7,18.0,30.20,WSW,244,1.0,8.0,89,0.00,,---,0.00,VWS V13.01,2013-01-26 11:33:00,
2013-01-26 06:38:00,20.8,18.1,30.21,SW,227,3.0,8.0,89,0.00,,---,0.00,VWS V13.01,2013-01-26 11:38:00,
2013-01-26 06:43:00,20.8,18.1,30.21,SW,234,1.0,8.0,89,0.00,,---,0.00,VWS V13.01,2013-01-26 11:43:00,
2013-01-26 06:48:00,20.8,18.1,30.21,WSW,239,2.0,8.0,89,0.00,,---,0.00,VWS V13.01,2013-01-26 11:48:00,
2013-01-26 06:53:00,20.8,18.1,30.21,WSW,258,4.0,8.0,89,0.00,,---,0.00,VWS V13.01,2013-01-26 11:53:00,
2013-01-26 06:58:00,20.8,18.1,30.21,SW,225,5.0,8.0,89,0.00,,---,0.00,VWS V13.01,2013-01-26 11:58:00,
2013-01-26 07:03:00,20.9,18.2,30.21,SW,226,5.0,5.0,89,0.00,,---,0.00,VWS V13.01,2013-01-26 12:03:00,
2013-01-26 07:08:00,20.9,18.2,30.21,SSW,207,3.0,6.0,89,0.00,,---,0.00,VWS V13.01,2013-01-26 12:08:00,
2013-01-26 07:13:00,20.9,18.2,30.21,SSW,205,3.0,7.0,89,0.00,,---,0.00,VWS V13.01,2013-01-26 12:13:00,
2013-01-26 07:18:00,20.9,18.2,30.22,SW,228,4.0,7.0,89,0.00,,---,0.00,VWS V13.01,2013-01-26 12:18:00,
2013-01-26 07:23:00,20.9,18.2,30.21,WSW,242,2.0,7.0,89,0.00,,---,0.00,VWS V13.01,2013-01-26 12:23:00,
2013-01-26 07:28:00,21.0,18.3,30.22,SW,232,1.0,7.0,89,0.00,,---,0.00,VWS V13.01,2013-01-26 12:28:00,
2013-01-26 07:33:00,21.0,18.3,30.22,SW,215,3.0,8.0,89,0.00,,---,0.00,VWS V13.01,2013-01-26 12:33:00,
2013-01-26 07:38:00,21.0,18.3,30.22,SW,220,3.0,8.0,89,0.00,,---,0.00,VWS V13.01,2013-01-26 12:38:00,
2013-01-26 07:43:00,21.0,18.3,30.22,SW,234,2.0,8.0,89,0.00,,---,0.00,VWS V13.01,2013-01-26 12:43:00,
2013-01-26 07:48:00,21.1,18.4,30.22,SW,234,5.0,8.0,89,0.00,,---,0.00,VWS V13.01,2013-01-26 12:48:00,
2013-01-26 07:53:00,21.1,18.4,30.23,SW,226,3.0,8.0,89,0.00,,---,0.00,VWS V13.01,2013-01-26 12:53:00,
2013-01-26 07:58:00,21.1,18.4,30.22,SW,222,3.0,8.0,89,0.00,,---,0.00,VWS V13.01,2013-01-26 12:58:00,
2013-01-26 08:03:00,21.1,18.4,30.23,SW,225,5.0,6.0,89,0.00,,---,0.00,VWS V13.01,2013-01-26 13:03:00,
2013-01-26 08:08:00,21.2,18.5,30.23,SW,230,6.0,6.0,89,0.00,,---,0.00,VWS V13.01,2013-01-26 13:08:00,
2013-01-26 08:13:00,21.2,18.5,30.23,SW,231,4.0,6.0,89,0.00,,---,0.00,VWS V13.01,2013-01-26 13:13:00,
2013-01-26 08:18:00,21.3,18.6,30.22,WSW,242,3.0,6.0,89,0.00,,---,0.00,VWS V13.01,2013-01-26 13:18:00,
2013-01-26 08:23:00,21.3,18.6,30.23,SW,222,4.0,6.0,89,0.00,,---,0.00,VWS V13.01,2013-01-26 13:23:00,
2013-01-26 08:28:00,21.5,18.8,30.23,SW,225,3.0,6.0,89,0.00,,---,0.00,VWS V13.01,2013-01-26 13:28:00,
2013-01-26 08:33:00,21.5,19.0,30.23,SW,229,1.0,4.0,90,0.00,,---,0.00,VWS V13.01,2013-01-26 13:33:00,
2013-01-26 08:38:00,21.6,18.9,30.23,WSW,238,3.0,5.0,89,0.00,,---,0.00,VWS V13.01,2013-01-26 13:38:00,
2013-01-26 08:43:00,21.7,19.2,30.23,SW,217,1.0,6.0,90,0.00,,---,0.00,VWS V13.01,2013-01-26 13:43:00,
2013-01-26 08:48:00,21.7,19.0,30.23,SW,227,5.0,7.0,89,0.00,,---,0.00,VWS V13.01,2013-01-26 13:48:00,
2013-01-26 08:53:00,21.8,19.1,30.24,SW,227,4.0,7.0,89,0.00,,---,0.00,VWS V13.01,2013-01-26 13:53:00,
2013-01-26 08:58:00,21.9,19.2,30.24,WSW,247,4.0,7.0,89,0.00,,---,0.00,VWS V13.01,2013-01-26 13:58:00,
2013-01-26 09:03:00,22.0,19.3,30.24,SW,218,4.0,5.0,89,0.00,,---,0.00,VWS V13.01,2013-01-26 14:03:00,
2013-01-26 09:08:00,22.2,19.7,30.24,SW,232,2.0,5.0,90,0.00,,---,0.00,VWS V13.01,2013-01-26 14:08:00,
2013-01-26 09:13:00,22.3,19.8,30.24,SW,232,5.0,5.0,90,0.00,,---,0.00,VWS V13.01,2013-01-26 14:13:00,
2013-01-26 09:18:00,22.4,19.7,30.25,SSW,205,4.0,6.0,89,0.00,,---,0.00,VWS V13.01,2013-01-26 14:18:00,
2013-01-26 09:23:00,22.5,19.8,30.25,SW,219,4.0,7.0,89,0.00,,---,0.00,VWS V13.01,2013-01-26 14:23:00,
2013-01-26 09:28:00,22.6,19.9,30.25,SW,233,3.0,7.0,89,0.00,,---,0.00,VWS V13.01,2013-01-26 14:28:00,
2013-01-26 09:33:00,22.7,20.0,30.25,WSW,237,3.0,5.0,89,0.00,,---,0.00,VWS V13.01,2013-01-26 14:33:00,
2013-01-26 09:38:00,22.8,20.0,30.26,SW,216,1.0,5.0,89,0.00,,---,0.00,VWS V13.01,2013-01-26 14:38:00,
2013-01-26 09:43:00,22.9,20.1,30.26,SW,235,4.0,5.0,89,0.00,,---,0.00,VWS V13.01,2013-01-26 14:43:00,
2013-01-26 09:48:00,23.0,20.2,30.26,SW,232,2.0,6.0,89,0.00,,---,0.00,VWS V13.01,2013-01-26 14:48:00,
2013-01-26 09:53:00,23.1,20.4,30.27,WSW,240,1.0,6.0,89,0.00,,---,0.00,VWS V13.01,2013-01-26 14:53:00,
2013-01-26 09:58:00,23.3,20.5,30.27,WSW,258,4.0,6.0,89,0.00,,---,0.00,VWS V13.01,2013-01-26 14:58:00,
2013-01-26 10:03:00,23.4,20.6,30.27,SW,233,1.0,4.0,89,0.00,,---,0.00,VWS V13.01,2013-01-26 15:03:00,
2013-01-26 10:08:00,23.7,20.9,30.27,WSW,240,1.0,4.0,89,0.00,,---,0.00,VWS V13.01,2013-01-26 15:08:00,
2013-01-26 10:13:00,24.0,21.2,30.27,SW,225,3.0,5.0,89,0.00,,---,0.00,VWS V13.01,2013-01-26 15:13:00,
2013-01-26 10:18:00,24.2,21.2,30.28,West,281,4.0,7.0,88,0.00,,---,0.00,VWS V13.01,2013-01-26 15:18:00,
2013-01-26 10:23:00,24.3,21.0,30.28,West,274,3.0,7.0,87,0.00,,---,0.00,VWS V13.01,2013-01-26 15:23:00,
2013-01-26 10:28:00,24.4,20.8,30.28,SW,232,4.0,8.0,86,0.00,,---,0.00,VWS V13.01,2013-01-26 15:28:00,
2013-01-26 10:33:00,24.4,20.8,30.28,WSW,252,3.0,7.0,86,0.00,,---,0.00,VWS V13.01,2013-01-26 15:33:00,
2013-01-26 10:38:00,24.5,20.9,30.28,WSW,256,2.0,7.0,86,0.00,,---,0.00,VWS V13.01,2013-01-26 15:38:00,
2013-01-26 10:43:00,24.6,21.0,30.28,WSW,246,2.0,7.0,86,0.00,,---,0.00,VWS V13.01,2013-01-26 15:43:00,
2013-01-26 10:48:00,24.8,21.2,30.27,WSW,256,1.0,7.0,86,0.00,,---,0.00,VWS V13.01,2013-01-26 15:48:00,
2013-01-26 10:53:00,24.9,21.0,30.27,SW,221,4.0,7.0,85,0.00,,---,0.00,VWS V13.01,2013-01-26 15:53:00,
2013-01-26 10:58:00,25.1,21.2,30.26,SSW,212,2.0,7.0,85,0.00,,---,0.00,VWS V13.01,2013-01-26 15:58:00,
2013-01-26 11:03:00,25.4,21.5,30.26,SW,215,0.0,7.0,85,0.00,,---,0.00,VWS V13.01,2013-01-26 16:03:00,
2013-01-26 11:08:00,25.6,21.7,30.26,SW,225,6.0,7.0,85,0.00,,---,0.00,VWS V13.01,2013-01-26 16:08:00,
2013-01-26 11:13:00,25.6,21.5,30.26,WSW,240,4.0,7.0,84,0.00,,---,0.00,VWS V13.01,2013-01-26 16:13:00,
2013-01-26 11:18:00,25.7,21.5,30.26,WSW,257,3.0,8.0,84,0.00,,---,0.00,VWS V13.01,2013-01-26 16:18:00,
2013-01-26 11:23:00,25.8,21.4,30.26,SW,233,5.0,8.0,83,0.00,,---,0.00,VWS V13.01,2013-01-26 16:23:00,
2013-01-26 11:28:00,25.9,21.7,30.27,WSW,257,2.0,8.0,84,0.00,,---,0.00,VWS V13.01,2013-01-26 16:28:00,
2013-01-26 11:33:00,26.1,21.9,30.27,WSW,245,1.0,5.0,84,0.00,,---,0.00,VWS V13.01,2013-01-26 16:33:00,
2013-01-26 11:38:00,26.3,21.9,30.27,SW,232,4.0,7.0,83,0.00,,---,0.00,VWS V13.01,2013-01-26 16:38:00,
2013-01-26 11:43:00,26.4,21.7,30.27,WSW,253,6.0,8.0,82,0.00,,---,0.00,VWS V13.01,2013-01-26 16:43:00,
2013-01-26 11:48:00,26.5,21.8,30.27,WSW,247,5.0,8.0,82,0.00,,---,0.00,VWS V13.01,2013-01-26 16:48:00,
2013-01-26 11:53:00,26.5,21.5,30.27,SW,233,4.0,9.0,81,0.00,,---,0.00,VWS V13.01,2013-01-26 16:53:00,
2013-01-26 11:58:00,26.6,21.6,30.27,SW,230,4.0,9.0,81,0.00,,---,0.00,VWS V13.01,2013-01-26 16:58:00,
2013-01-26 12:03:00,26.9,22.1,30.27,WSW,241,7.0,7.0,82,0.00,,---,0.00,VWS V13.01,2013-01-26 17:03:00,
2013-01-26 12:08:00,26.9,21.6,30.27,West,266,4.0,11.0,80,0.00,,---,0.00,VWS V13.01,2013-01-26 17:08:00,
2013-01-26 12:13:00,26.8,21.5,30.27,WNW,290,0.0,11.0,80,0.00,,---,0.00,VWS V13.01,2013-01-26 17:13:00,
2013-01-26 12:18:00,26.9,21.9,30.27,NW,306,1.0,11.0,81,0.00,,---,0.00,VWS V13.01,2013-01-26 17:18:00,
2013-01-26 12:23:00,26.9,21.6,30.27,WSW,247,7.0,11.0,80,0.00,,---,0.00,VWS V13.01,2013-01-26 17:23:00,
2013-01-26 12:28:00,26.9,21.6,30.27,WSW,246,6.0,11.0,80,0.00,,---,0.00,VWS V13.01,2013-01-26 17:28:00,
2013-01-26 12:33:00,27.0,21.7,30.27,NW,313,4.0,7.0,80,0.00,,---,0.00,VWS V13.01,2013-01-26 17:33:00,
2013-01-26 12:38:00,27.2,21.9,30.27,West,274,0.0,7.0,80,0.00,,---,0.00,VWS V13.01,2013-01-26 17:38:00,
2013-01-26 12:43:00,27.4,21.8,30.27,West,278,2.0,7.0,79,0.00,,---,0.00,VWS V13.01,2013-01-26 17:43:00,
2013-01-26 12:48:00,27.5,21.9,30.27,NW,308,3.0,7.0,79,0.00,,---,0.00,VWS V13.01,2013-01-26 17:48:00,
2013-01-26 12:53:00,27.6,22.0,30.28,WSW,252,2.0,7.0,79,0.00,,---,0.00,VWS V13.01,2013-01-26 17:53:00,
2013-01-26 12:58:00,27.7,22.0,30.28,WNW,287,0.0,7.0,79,0.00,,---,0.00,VWS V13.01,2013-01-26 17:58:00,
2013-01-26 13:03:00,27.7,22.0,30.28,WNW,290,2.0,6.0,79,0.00,,---,0.00,VWS V13.01,2013-01-26 18:03:00,
2013-01-26 13:08:00,27.6,22.0,30.28,WNW,289,8.0,9.0,79,0.00,,---,0.00,VWS V13.01,2013-01-26 18:08:00,
2013-01-26 13:13:00,27.5,21.9,30.28,West,262,3.0,9.0,79,0.00,,---,0.00,VWS V13.01,2013-01-26 18:13:00,
2013-01-26 13:18:00,27.5,21.9,30.27,WNW,296,3.0,9.0,79,0.00,,---,0.00,VWS V13.01,2013-01-26 18:18:00,
2013-01-26 13:23:00,27.6,22.0,30.27,WNW,296,4.0,9.0,79,0.00,,---,0.00,VWS V13.01,2013-01-26 18:23:00,
2013-01-26 13:28:00,27.8,22.1,30.27,West,260,3.0,9.0,79,0.00,,---,0.00,VWS V13.01,2013-01-26 18:28:00,
2013-01-26 13:33:00,27.8,22.1,30.28,West,261,7.0,9.0,79,0.00,,---,0.00,VWS V13.01,2013-01-26 18:33:00,
2013-01-26 13:38:00,27.7,21.8,30.28,WSW,258,6.0,9.0,78,0.00,,---,0.00,VWS V13.01,2013-01-26 18:38:00,
2013-01-26 13:44:00,27.6,21.6,30.28,West,278,4.0,9.0,78,0.00,,---,0.00,VWS V13.01,2013-01-26 18:44:00,
2013-01-26 13:49:00,27.5,21.9,30.28,West,270,1.0,9.0,79,0.00,,---,0.00,VWS V13.01,2013-01-26 18:49:00,
2013-01-26 13:53:00,27.5,21.9,30.28,NW,304,3.0,9.0,79,0.00,,---,0.00,VWS V13.01,2013-01-26 18:53:00,
2013-01-26 13:59:00,27.6,22.0,30.28,WSW,243,4.0,9.0,79,0.00,,---,0.00,VWS V13.01,2013-01-26 18:59:00,
2013-01-26 14:04:00,27.7,22.0,30.28,WSW,252,6.0,7.0,79,0.00,,---,0.00,VWS V13.01,2013-01-26 19:04:00,
2013-01-26 14:09:00,27.7,22.0,30.28,West,278,0.0,7.0,79,0.00,,---,0.00,VWS V13.01,2013-01-26 19:09:00,
2013-01-26 14:14:00,27.9,22.2,30.28,WNW,289,4.0,7.0,79,0.00,,---,0.00,VWS V13.01,2013-01-26 19:14:00,
2013-01-26 14:19:00,27.9,22.2,30.28,West,277,4.0,7.0,79,0.00,,---,0.00,VWS V13.01,2013-01-26 19:19:00,
2013-01-26 14:24:00,28.0,22.3,30.28,West,270,6.0,7.0,79,0.00,,---,0.00,VWS V13.01,2013-01-26 19:24:00,
2013-01-26 14:29:00,28.0,22.6,30.28,SSW,211,4.0,7.0,80,0.00,,---,0.00,VWS V13.01,2013-01-26 19:29:00,
2013-01-26 14:34:00,27.9,22.8,30.28,WSW,248,2.0,10.0,81,0.00,,---,0.00,VWS V13.01,2013-01-26 19:34:00,
2013-01-26 14:39:00,27.8,23.0,30.29,West,264,1.0,10.0,82,0.00,,---,0.00,VWS V13.01,2013-01-26 19:39:00,
2013-01-26 14:44:00,27.7,23.2,30.29,SW,235,3.0,10.0,83,0.00,,---,0.00,VWS V13.01,2013-01-26 19:44:00,
2013-01-26 14:49:00,27.5,23.0,30.29,WSW,252,2.0,10.0,83,0.00,,---,0.00,VWS V13.01,2013-01-26 19:49:00,
2013-01-26 14:54:00,27.4,22.9,30.29,WSW,254,6.0,10.0,83,0.00,,---,0.00,VWS V13.01,2013-01-26 19:54:00,
2013-01-26 14:59:00,27.4,22.6,30.29,WSW,252,5.0,10.0,82,0.00,,---,0.00,VWS V13.01,2013-01-26 19:59:00,
2013-01-26 15:04:00,27.5,23.0,30.29,WNW,291,3.0,4.0,83,0.00,,---,0.00,VWS V13.01,2013-01-26 20:04:00,
2013-01-26 15:09:00,27.5,23.0,30.30,West,273,2.0,5.0,83,0.00,,---,0.00,VWS V13.01,2013-01-26 20:09:00,
2013-01-26 15:14:00,27.4,23.2,30.30,WNW,284,3.0,5.0,84,0.00,,---,0.00,VWS V13.01,2013-01-26 20:14:00,
2013-01-26 15:19:00,27.3,23.4,30.30,WNW,284,3.0,5.0,85,0.00,,---,0.00,VWS V13.01,2013-01-26 20:19:00,
2013-01-26 15:24:00,27.1,23.5,30.30,NW,309,2.0,5.0,86,0.00,,---,0.00,VWS V13.01,2013-01-26 20:24:00,
2013-01-26 15:29:00,27.0,23.4,30.31,West,263,3.0,7.0,86,0.00,,---,0.00,VWS V13.01,2013-01-26 20:29:00,
2013-01-26 15:34:00,26.7,22.8,30.31,NW,306,2.0,9.0,85,0.00,,---,0.00,VWS V13.01,2013-01-26 20:34:00,
2013-01-26 15:39:00,26.6,22.1,30.31,WSW,256,4.0,10.0,83,0.00,,---,0.00,VWS V13.01,2013-01-26 20:39:00,
2013-01-26 15:44:00,26.7,22.2,30.32,West,271,4.0,10.0,83,0.00,,---,0.00,VWS V13.01,2013-01-26 20:44:00,
2013-01-26 15:49:00,26.7,22.2,30.32,WSW,243,4.0,10.0,83,0.00,,---,0.00,VWS V13.01,2013-01-26 20:49:00,
2013-01-26 15:54:00,26.8,22.3,30.32,WSW,246,4.0,10.0,83,0.00,,---,0.00,VWS V13.01,2013-01-26 20:54:00,
2013-01-26 15:59:00,26.9,22.1,30.33,SW,235,1.0,10.0,82,0.00,,---,0.00,VWS V13.01,2013-01-26 20:59:00,
2013-01-26 16:04:00,27.0,22.0,30.32,WSW,242,3.0,7.0,81,0.00,,---,0.00,VWS V13.01,2013-01-26 21:04:00,
2013-01-26 16:09:00,27.0,22.0,30.33,WSW,247,3.0,7.0,81,0.00,,---,0.00,VWS V13.01,2013-01-26 21:09:00,
2013-01-26 16:14:00,27.1,21.8,30.33,NW,306,4.0,7.0,80,0.00,,---,0.00,VWS V13.01,2013-01-26 21:14:00,
2013-01-26 16:19:00,26.9,21.6,30.33,WNW,302,4.0,9.0,80,0.00,,---,0.00,VWS V13.01,2013-01-26 21:19:00,
2013-01-26 16:24:00,26.7,21.4,30.33,WSW,256,3.0,9.0,80,0.00,,---,0.00,VWS V13.01,2013-01-26 21:24:00,
2013-01-26 16:29:00,26.5,21.2,30.34,West,264,5.0,9.0,80,0.00,,---,0.00,VWS V13.01,2013-01-26 21:29:00,
2013-01-26 16:34:00,26.3,21.0,30.34,WNW,295,2.0,9.0,80,0.00,,---,0.00,VWS V13.01,2013-01-26 21:34:00,
2013-01-26 16:39:00,26.2,20.9,30.34,WSW,240,4.0,11.0,80,0.00,,---,0.00,VWS V13.01,2013-01-26 21:39:00,
2013-01-26 16:44:00,26.1,20.8,30.34,WSW,243,4.0,11.0,80,0.00,,---,0.00,VWS V13.01,2013-01-26 21:44:00,
2013-01-26 16:49:00,26.1,20.8,30.34,West,261,6.0,11.0,80,0.00,,---,0.00,VWS V13.01,2013-01-26 21:49:00,
2013-01-26 16:54:00,26.1,20.5,30.34,WSW,240,5.0,11.0,79,0.00,,---,0.00,VWS V13.01,2013-01-26 21:54:00,
2013-01-26 16:59:00,26.1,20.5,30.35,NW,306,3.0,11.0,79,0.00,,---,0.00,VWS V13.01,2013-01-26 21:59:00,
2013-01-26 17:04:00,26.1,20.8,30.35,West,278,2.0,5.0,80,0.00,,---,0.00,VWS V13.01,2013-01-26 22:04:00,
2013-01-26 17:09:00,26.1,20.5,30.35,WNW,287,3.0,5.0,79,0.00,,---,0.00,VWS V13.01,2013-01-26 22:09:00,
2013-01-26 17:14:00,26.1,20.5,30.35,West,281,1.0,7.0,79,0.00,,---,0.00,VWS V13.01,2013-01-26 22:14:00,
2013-01-26 17:19:00,26.1,20.2,30.35,West,278,3.0,7.0,78,0.00,,---,0.00,VWS V13.01,2013-01-26 22:19:00,
2013-01-26 17:24:00,26.0,20.1,30.36,West,280,4.0,7.0,78,0.00,,---,0.00,VWS V13.01,2013-01-26 22:24:00,
2013-01-26 17:29:00,25.9,19.7,30.36,West,281,4.0,7.0,77,0.00,,---,0.00,VWS V13.01,2013-01-26 22:29:00,
2013-01-26 17:34:00,25.8,19.9,30.36,WSW,248,2.0,4.0,78,0.00,,---,0.00,VWS V13.01,2013-01-26 22:34:00,
2013-01-26 17:39:00,25.6,19.7,30.36,West,281,2.0,6.0,78,0.00,,---,0.00,VWS V13.01,2013-01-26 22:39:00,
2013-01-26 17:44:00,25.5,19.6,30.37,West,262,3.0,6.0,78,0.00,,---,0.00,VWS V13.01,2013-01-26 22:44:00,
2013-01-26 17:49:00,25.4,19.5,30.37,WSW,248,1.0,6.0,78,0.00,,---,0.00,VWS V13.01,2013-01-26 22:49:00,
2013-01-26 17:54:00,25.2,19.3,30.37,West,273,1.0,6.0,78,0.00,,---,0.00,VWS V13.01,2013-01-26 22:54:00,
2013-01-26 17:59:00,25.1,19.2,30.37,West,267,1.0,6.0,78,0.00,,---,0.00,VWS V13.01,2013-01-26 22:59:00,
2013-01-26 18:04:00,24.9,19.0,30.37,WNW,288,3.0,4.0,78,0.00,,---,0.00,VWS V13.01,2013-01-26 23:04:00,
2013-01-26 18:09:00,24.7,18.8,30.37,West,261,1.0,5.0,78,0.00,,---,0.00,VWS V13.01,2013-01-26 23:09:00,
2013-01-26 18:14:00,24.7,18.8,30.37,West,262,2.0,5.0,78,0.00,,---,0.00,VWS V13.01,2013-01-26 23:14:00,
2013-01-26 18:19:00,24.5,18.6,30.38,West,279,2.0,5.0,78,0.00,,---,0.00,VWS V13.01,2013-01-26 23:19:00,
2013-01-26 18:24:00,24.4,18.5,30.38,West,276,2.0,5.0,78,0.00,,---,0.00,VWS V13.01,2013-01-26 23:24:00,
2013-01-26 18:29:00,24.3,18.4,30.38,WSW,250,3.0,5.0,78,0.00,,---,0.00,VWS V13.01,2013-01-26 23:29:00,
2013-01-26 18:34:00,24.1,18.2,30.39,WNW,285,0.0,5.0,78,0.00,,---,0.00,VWS V13.01,2013-01-26 23:34:00,
2013-01-26 18:39:00,24.0,18.1,30.39,WNW,284,3.0,5.0,78,0.00,,---,0.00,VWS V13.01,2013-01-26 23:39:00,
2013-01-26 18:44:00,23.8,17.7,30.39,West,259,0.0,5.0,77,0.00,,---,0.00,VWS V13.01,2013-01-26 23:44:00,
2013-01-26 18:49:00,23.6,17.5,30.40,WSW,252,2.0,5.0,77,0.00,,---,0.00,VWS V13.01,2013-01-26 23:49:00,
2013-01-26 18:54:00,23.4,17.6,30.40,West,273,3.0,5.0,78,0.00,,---,0.00,VWS V13.01,2013-01-26 23:54:00,
2013-01-26 18:59:00,23.2,17.4,30.40,West,271,1.0,5.0,78,0.00,,---,0.00,VWS V13.01,2013-01-26 23:59:00,
2013-01-26 19:04:00,23.1,17.3,30.40,WNW,296,2.0,4.0,78,0.00,,---,0.00,VWS V13.01,2013-01-27 00:04:00,
2013-01-26 19:09:00,23.1,17.6,30.41,WNW,298,3.0,4.0,79,0.00,,---,0.00,VWS V13.01,2013-01-27 00:09:00,
2013-01-26 19:14:00,23.3,17.8,30.41,NW,308,2.0,4.0,79,0.00,,---,0.00,VWS V13.01,2013-01-27 00:14:00,
2013-01-26 19:19:00,23.4,17.9,30.41,WNW,300,3.0,4.0,79,0.00,,---,0.00,VWS V13.01,2013-01-27 00:19:00,
2013-01-26 19:24:00,23.3,17.5,30.41,WNW,293,1.0,4.0,78,0.00,,---,0.00,VWS V13.01,2013-01-27 00:24:00,
2013-01-26 19:29:00,23.2,17.4,30.41,WNW,284,0.0,5.0,78,0.00,,---,0.00,VWS V13.01,2013-01-27 00:29:00,
2013-01-26 19:34:00,23.0,16.9,30.41,West,278,1.0,5.0,77,0.00,,---,0.00,VWS V13.01,2013-01-27 00:34:00,
2013-01-26 19:39:00,22.9,17.1,30.41,West,277,1.0,5.0,78,0.00,,---,0.00,VWS V13.01,2013-01-27 00:39:00,
2013-01-26 19:44:00,22.7,16.9,30.41,WNW,301,1.0,5.0,78,0.00,,---,0.00,VWS V13.01,2013-01-27 00:44:00,
2013-01-26 19:49:00,22.5,17.0,30.41,WNW,301,0.0,5.0,79,0.00,,---,0.00,VWS V13.01,2013-01-27 00:49:00,
2013-01-26 19:54:00,22.3,16.5,30.42,WNW,301,1.0,5.0,78,0.00,,---,0.00,VWS V13.01,2013-01-27 00:54:00,
2013-01-26 19:59:00,22.1,16.6,30.42,WNW,283,1.0,5.0,79,0.00,,---,0.00,VWS V13.01,2013-01-27 00:59:00,
2013-01-26 20:04:00,21.9,16.7,30.42,WSW,252,0.0,3.0,80,0.00,,---,0.00,VWS V13.01,2013-01-27 01:04:00,
2013-01-26 20:09:00,21.9,17.0,30.43,WSW,254,1.0,3.0,81,0.00,,---,0.00,VWS V13.01,2013-01-27 01:09:00,
2013-01-26 20:14:00,21.9,17.0,30.43,WSW,254,1.0,4.0,81,0.00,,---,0.00,VWS V13.01,2013-01-27 01:14:00,
2013-01-26 20:19:00,22.0,17.4,30.43,West,280,2.0,4.0,82,0.00,,---,0.00,VWS V13.01,2013-01-27 01:19:00,
2013-01-26 20:24:00,22.2,17.3,30.44,West,274,0.0,4.0,81,0.00,,---,0.00,VWS V13.01,2013-01-27 01:24:00,
2013-01-26 20:29:00,22.4,17.5,30.44,NW,312,3.0,4.0,81,0.00,,---,0.00,VWS V13.01,2013-01-27 01:29:00,
2013-01-26 20:34:00,22.6,17.4,30.44,WNW,301,4.0,5.0,80,0.00,,---,0.00,VWS V13.01,2013-01-27 01:34:00,
2013-01-26 20:39:00,22.7,17.5,30.44,NW,311,1.0,5.0,80,0.00,,---,0.00,VWS V13.01,2013-01-27 01:39:00,
2013-01-26 20:44:00,22.6,17.4,30.44,NW,308,1.0,5.0,80,0.00,,---,0.00,VWS V13.01,2013-01-27 01:44:00,
2013-01-26 20:49:00,22.5,17.0,30.44,NNW,333,2.0,5.0,79,0.00,,---,0.00,VWS V13.01,2013-01-27 01:49:00,
2013-01-26 20:54:00,22.4,16.6,30.44,NW,314,0.0,6.0,78,0.00,,---,0.00,VWS V13.01,2013-01-27 01:54:00,
2013-01-26 20:59:00,22.3,16.5,30.44,NW,317,1.0,6.0,78,0.00,,---,0.00,VWS V13.01,2013-01-27 01:59:00,
2013-01-26 21:04:00,22.1,16.3,30.45,WNW,288,0.0,4.0,78,0.00,,---,0.00,VWS V13.01,2013-01-27 02:04:00,
2013-01-26 21:09:00,21.9,15.8,30.45,West,265,1.0,4.0,77,0.00,,---,0.00,VWS V13.01,2013-01-27 02:09:00,
2013-01-26 21:14:00,21.6,15.8,30.45,West,263,1.0,4.0,78,0.00,,---,0.00,VWS V13.01,2013-01-27 02:14:00,
2013-01-26 21:19:00,21.4,15.3,30.45,WNW,292,1.0,8.0,77,0.00,,---,0.00,VWS V13.01,2013-01-27 02:19:00,
2013-01-26 21:24:00,21.3,15.2,30.46,WNW,301,3.0,8.0,77,0.00,,---,0.00,VWS V13.01,2013-01-27 02:24:00,
2013-01-26 21:29:00,21.2,15.1,30.45,West,268,2.0,8.0,77,0.00,,---,0.00,VWS V13.01,2013-01-27 02:29:00,
2013-01-26 21:34:00,21.1,15.0,30.46,West,277,1.0,4.0,77,0.00,,---,0.00,VWS V13.01,2013-01-27 02:34:00,
2013-01-26 21:39:00,21.0,14.6,30.45,West,269,0.0,6.0,76,0.00,,---,0.00,VWS V13.01,2013-01-27 02:39:00,
2013-01-26 21:44:00,20.8,14.7,30.45,West,271,0.0,6.0,77,0.00,,---,0.00,VWS V13.01,2013-01-27 02:44:00,
2013-01-26 21:49:00,20.6,14.6,30.46,WSW,250,2.0,6.0,77,0.00,,---,0.00,VWS V13.01,2013-01-27 02:49:00,
2013-01-26 21:54:00,20.5,14.4,30.46,WNW,295,1.0,6.0,77,0.00,,---,0.00,VWS V13.01,2013-01-27 02:54:00,
2013-01-26 21:59:00,20.3,14.6,30.47,West,276,1.0,6.0,78,0.00,,---,0.00,VWS V13.01,2013-01-27 02:59:00,
2013-01-26 22:04:00,20.2,14.4,30.46,WNW,291,1.0,2.0,78,0.00,,---,0.00,VWS V13.01,2013-01-27 03:04:00,
2013-01-26 22:09:00,20.2,14.4,30.47,NW,315,0.0,5.0,78,0.00,,---,0.00,VWS V13.01,2013-01-27 03:09:00,
2013-01-26 22:14:00,19.9,13.9,30.46,NW,315,0.0,5.0,77,0.00,,---,0.00,VWS V13.01,2013-01-27 03:14:00,
2013-01-26 22:19:00,19.8,14.1,30.46,NW,323,1.0,5.0,78,0.00,,---,0.00,VWS V13.01,2013-01-27 03:19:00,
2013-01-26 22:24:00,19.5,13.8,30.46,NW,322,0.0,5.0,78,0.00,,---,0.00,VWS V13.01,2013-01-27 03:24:00,
2013-01-26 22:29:00,19.1,13.1,30.46,NW,322,0.0,5.0,77,0.00,,---,0.00,VWS V13.01,2013-01-27 03:29:00,
2013-01-26 22:34:00,18.7,12.7,30.47,NW,322,0.0,0.0,77,0.00,,---,0.00,VWS V13.01,2013-01-27 03:34:00,
2013-01-26 22:39:00,18.2,12.8,30.47,NW,322,0.0,0.0,79,0.00,,---,0.00,VWS V13.01,2013-01-27 03:39:00,
2013-01-26 22:44:00,17.8,12.7,30.48,NW,322,0.0,1.0,80,0.00,,---,0.00,VWS V13.01,2013-01-27 03:44:00,
2013-01-26 22:49:00,17.5,12.4,30.48,NW,322,0.0,2.0,80,0.00,,---,0.00,VWS V13.01,2013-01-27 03:49:00,
2013-01-26 22:54:00,17.3,12.5,30.48,NW,322,0.0,2.0,81,0.00,,---,0.00,VWS V13.01,2013-01-27 03:54:00,
2013-01-26 22:59:00,17.1,12.6,30.48,NW,322,1.0,2.0,82,0.00,,---,0.00,VWS V13.01,2013-01-27 03:59:00,
2013-01-26 23:04:00,16.9,12.4,30.48,NW,322,0.0,2.0,82,0.00,,---,0.00,VWS V13.01,2013-01-27 04:04:00,
2013-01-26 23:09:00,16.7,11.9,30.48,NW,317,0.0,2.0,81,0.00,,---,0.00,VWS V13.01,2013-01-27 04:09:00,
2013-01-26 23:14:00,16.2,11.1,30.49,WNW,303,0.0,2.0,80,0.00,,---,0.00,VWS V13.01,2013-01-27 04:14:00,
2013-01-26 23:19:00,15.6,10.5,30.49,WNW,303,0.0,2.0,80,0.00,,---,0.00,VWS V13.01,2013-01-27 04:19:00,
2013-01-26 23:24:00,15.2,10.7,30.49,SSW,198,0.0,2.0,82,0.00,,---,0.00,VWS V13.01,2013-01-27 04:24:00,
2013-01-26 23:29:00,15.1,11.1,30.50,SSW,198,0.0,2.0,84,0.00,,---,0.00,VWS V13.01,2013-01-27 04:29:00,
2013-01-26 23:34:00,14.9,10.9,30.50,SSW,198,0.0,2.0,84,0.00,,---,0.00,VWS V13.01,2013-01-27 04:34:00,
2013-01-26 23:39:00,14.6,10.4,30.50,SSW,198,0.0,2.0,83,0.00,,---,0.00,VWS V13.01,2013-01-27 04:39:00,
2013-01-26 23:44:00,14.2,10.3,30.50,SSW,198,0.0,2.0,84,0.00,,---,0.00,VWS V13.01,2013-01-27 04:44:00,
2013-01-26 23:49:00,14.0,10.3,30.51,SSW,198,0.0,2.0,85,0.00,,---,0.00,VWS V13.01,2013-01-27 04:49:00,
2013-01-26 23:54:00,13.8,10.1,30.51,SSW,198,0.0,2.0,85,0.00,,---,0.00,VWS V13.01,2013-01-27 04:54:00,
2013-01-26 23:59:00,13.6,10.2,30.51,SSW,198,0.0,2.0,86,0.00,,---,0.00,VWS V13.01,2013-01-27 04:59:00,